Wind_Speed
11 11 11 12 11 11 10 10 9 9 9 10 11 13 14 16 18 18 20 21 22 23 23 24 25 25 26 26 27 26 25 25 25 26 27 25 25 24 23 22 23 22 23 23 23 22 23 23 22 22 22 21 21 20 19 19 18 18 19 20 20 20 20 17 16 17 20 22 22 23 23 24 23 18 14 13 15 19 21 21 21 20 20 20 20
9 8 9 9 9 8 7 7 7 8 10 11 13 15 18 20 21 22 23 24 24 25 25 25 26 26 27 27 27 27 26 26 26 26 27 27 25 25 23 22 22 22 22 22 22 23 23 23 22 22 21 21 21 20 19 18 18 18 19 21 21 20 20 17 14 14 17 18 21 26 27 24 18 13 12 13 15 16 17 21 22 19 20 21 22
8 6 7 7 6 5 5 6 7 8 11 13 16 18 20 22 23 24 24 25 25 25 26 26 26 27 27 27 27 28 27 27 27 26 26 26 25 24 23 23 22 21 22 21 21 23 23 20 20 21 20 20 20 19 18 18 17 17 19 21 21 21 20 17 14 13 16 18 20 22 22 23 22 17 13 14 15 12 11 16 20 17 19 22 22
7 6 5 5 3 4 5 6 7 9 12 15 19 21 22 23 24 24 25 25 25 25 26 26 27 27 27 28 28 28 28 27 27 26 26 25 25 24 23 23 22 21 21 21 20 23 22 19 20 20 19 19 19 19 18 17 17 18 20 21 21 22 21 19 17 15 16 17 16 17 17 19 19 14 12 14 13 11 12 15 17 17 19 21 21
6 6 5 3 1 2 4 6 8 11 14 18 21 22 22 23 23 24 24 25 25 25 26 27 27 28 29 29 29 29 29 28 28 27 26 25 25 23 22 22 22 21 21 20 19 22 22 19 19 20 18 18 18 18 17 17 18 19 20 21 20 21 22 22 20 17 16 14 13 15 15 13 15 17 22 22 16 16 18 18 17 16 14 16 20
7 7 5 2 2 3 6 7 10 14 17 19 21 21 22 22 22 23 23 24 25 26 27 28 29 30 31 31 32 31 30 28 26 26 26 25 25 23 21 20 21 20 20 20 20 21 22 19 18 18 18 17 17 17 17 17 18 19 19 20 20 20 20 22 21 18 17 15 14 15 14 14 20 22 22 24 24 23 22 21 20 18 16 18 21
8 8 5 4 5 6 8 9 12 16 18 19 20 20 21 21 22 23 24 24 25 26 27 29 30 31 32 33 33 32 29 27 25 25 25 24 24 23 21 20 19 19 20 20 20 20 21 20 18 18 17 16 16 16 16 17 18 18 18 19 20 19 19 21 21 20 19 18 15 16 18 19 20 20 19 23 28 30 27 25 25 23 22 24 23
11 10 8 7 8 9 10 12 14 17 18 19 19 20 20 21 22 24 25 26 26 27 28 29 30 32 33 34 34 31 27 25 24 24 23 23 24 23 21 20 19 19 19 19 20 20 21 21 19 19 18 17 17 16 17 17 17 18 19 19 19 18 18 19 20 20 19 19 17 17 19 20 20 21 21 21 24 30 33 30 28 27 26 25 24
14 12 11 11 12 13 14 14 15 17 18 19 20 20 21 22 23 25 26 27 27 27 28 29 31 33 34 35 33 29 25 24 23 23 22 22 24 23 21 21 19 19 19 19 20 20 22 22 20 20 20 19 19 18 18 18 18 19 19 19 19 18 18 18 19 19 19 19 19 19 19 20 21 21 22 21 22 28 33 32 29 27 27 26 24
17 14 14 16 17 17 17 17 17 18 19 21 21 21 22 23 25 25 26 28 28 28 29 31 32 34 35 33 30 26 24 23 23 23 22 22 23 23 22 21 20 19 19 19 19 20 22 22 21 21 21 20 20 20 20 20 19 20 20 20 20 19 18 18 18 19 19 19 19 19 20 20 21 20 19 18 19 23 29 31 28 27 28 28 25
18 17 18 20 21 20 20 19 19 20 21 21 22 22 23 24 25 26 26 27 29 29 30 32 34 36 35 31 27 25 23 22 22 22 22 22 24 23 22 21 21 20 19 19 19 20 22 22 22 21 21 20 20 21 21 21 20 20 20 20 20 20 20 19 19 19 19 19 18 18 19 18 18 19 18 17 18 21 25 29 29 27 30 32 28
20 21 23 24 24 23 22 22 22 22 22 22 22 23 24 25 26 26 26 26 28 30 31 32 35 36 32 28 26 24 23 22 22 22 22 22 24 24 22 22 21 20 20 20 20 21 22 22 22 22 21 21 20 20 21 21 21 21 20 20 20 20 20 20 21 20 19 20 19 18 18 18 18 19 20 20 21 23 25 29 31 28 31 36 33
23 26 27 26 26 25 24 24 24 24 23 23 24 23 24 26 27 26 26 26 28 30 32 34 36 34 29 25 24 24 23 23 22 21 21 22 24 24 23 22 22 21 21 21 21 21 22 22 22 22 22 21 21 21 21 21 21 21 21 21 21 20 20 20 21 21 20 20 20 20 19 20 20 21 22 23 24 26 27 30 32 30 33 39 37
27 29 29 29 29 27 26 26 26 26 25 25 25 24 24 26 27 27 27 27 28 29 32 34 36 33 28 24 23 23 23 22 22 21 20 21 24 24 23 22 22 22 21 21 21 22 22 22 22 23 22 22 22 22 22 22 21 22 22 22 22 21 21 21 21 21 21 21 20 20 21 21 21 21 22 23 24 24 24 26 28 29 30 34 36
30 31 31 32 31 29 27 27 28 28 26 26 26 25 25 26 27 28 28 28 28 29 31 33 33 31 28 25 23 22 22 22 21 20 20 21 23 24 22 22 22 22 21 21 22 22 22 22 23 23 23 23 23 22 22 22 22 22 23 22 22 22 21 22 22 22 22 22 21 21 21 21 21 21 21 22 21 21 23 23 24 27 30 32 33
32 32 32 32 31 30 28 28 29 29 28 27 26 25 26 27 28 29 28 28 28 29 30 32 31 29 28 26 24 23 22 22 21 20 19 20 23 24 22 21 22 22 22 22 22 22 22 23 23 23 23 23 23 23 23 23 23 23 24 24 23 22 22 23 23 23 22 22 22 22 22 22 21 21 21 21 22 22 23 23 24 25 27 31 31
34 34 33 32 32 30 29 29 30 31 29 27 25 25 26 28 29 29 29 29 29 29 29 30 29 28 27 26 25 24 23 22 22 21 20 20 22 23 22 22 21 21 22 22 22 22 22 23 23 23 23 23 23 23 23 23 24 24 24 24 24 23 23 24 23 23 23 22 23 23 23 23 22 22 22 22 23 23 24 24 24 24 24 28 31
34 34 33 32 31 30 30 30 31 32 30 27 23 24 26 30 31 30 29 29 29 29 29 30 30 27 26 25 25 24 23 22 22 22 21 21 21 22 22 22 21 21 22 22 22 22 22 23 23 23 23 23 23 23 23 24 24 24 25 24 24 24 24 25 23 23 23 23 24 24 23 24 23 23 24 23 23 24 24 24 24 25 25 27 28
34 35 33 31 29 29 30 30 30 31 30 27 24 25 27 30 30 30 30 29 29 29 30 32 32 28 25 24 24 24 23 22 22 22 22 21 21 21 21 21 22 22 22 22 22 23 23 23 23 24 24 23 23 23 23 24 24 24 25 24 24 24 24 25 24 24 24 24 25 25 24 24 24 24 24 24 23 23 23 23 23 24 24 26 27
35 35 35 33 30 29 30 30 29 30 30 28 26 27 28 29 30 29 29 28 28 29 31 33 33 29 25 24 23 23 22 22 22 22 22 21 21 21 21 21 21 21 22 22 23 23 23 24 24 24 24 24 24 24 24 24 25 25 25 25 25 24 25 26 25 25 25 24 25 25 25 25 24 24 24 23 22 22 22 22 22 23 23 24 26
34 34 34 33 30 29 29 28 27 29 30 29 29 29 29 29 30 29 29 29 29 29 31 33 33 29 26 24 23 22 21 22 22 21 21 21 21 21 20 21 21 21 22 22 23 23 23 24 24 24 24 24 24 24 24 25 25 25 25 25 25 25 26 26 26 26 25 25 25 26 26 25 24 24 24 22 22 21 21 22 22 23 24 23 24
32 33 32 29 27 28 27 24 24 27 30 30 30 31 31 31 30 29 29 30 29 29 31 32 31 28 26 25 24 22 21 21 21 21 21 20 20 20 20 20 21 21 21 22 22 23 23 23 24 24 24 24 24 24 25 25 25 26 26 25 26 26 26 27 27 27 26 26 26 26 26 26 24 24 23 22 23 23 22 24 23 23 25 24 23
29 29 29 27 26 27 26 25 27 30 31 30 30 31 31 30 29 29 30 30 29 30 31 31 29 27 26 25 24 23 22 22 21 21 21 20 20 20 20 21 21 21 22 22 22 22 23 23 23 24 24 24 24 25 25 25 26 26 26 26 26 26 27 27 27 28 27 27 27 27 27 26 24 24 25 24 25 25 24 25 25 24 25 26 24
27 27 28 28 28 28 28 29 30 31 31 28 28 29 29 29 29 30 30 30 30 30 31 30 29 27 25 24 24 23 22 22 21 21 21 20 20 20 21 21 22 22 22 22 22 22 23 23 24 24 24 24 24 25 25 26 26 26 26 26 26 26 27 28 28 28 28 28 28 28 28 26 24 25 26 26 24 24 24 24 26 26 26 28 28
26 28 29 30 30 31 30 30 29 30 30 29 28 30 30 29 29 30 30 30 30 30 31 30 28 26 25 24 24 23 22 22 21 21 21 20 20 21 21 22 22 22 22 22 22 22 23 24 24 24 24 24 25 25 26 26 26 26 27 27 27 27 28 28 28 28 28 28 29 29 27 25 25 26 27 26 24 23 24 25 27 28 28 29 30
26 27 28 28 29 30 29 29 29 28 29 29 30 32 32 30 29 30 31 30 30 32 32 30 27 26 25 25 24 23 22 22 21 21 21 21 21 21 21 22 22 22 22 22 22 22 23 23 24 25 25 25 26 26 27 27 27 27 27 27 27 28 29 29 29 29 28 28 28 28 28 26 26 27 26 25 24 24 25 27 28 29 29 30 31
28 30 30 31 31 32 32 31 30 29 29 30 31 32 32 31 30 30 31 31 32 33 32 29 27 26 25 25 24 23 22 22 21 21 22 22 22 22 22 22 22 22 22 22 22 23 23 24 24 25 26 26 27 27 27 27 27 27 26 27 28 28 29 28 28 27 27 27 27 27 28 27 26 27 26 25 25 25 26 28 28 30 31 32 33
28 29 31 32 32 32 32 31 30 29 30 30 30 31 32 31 30 31 32 32 33 33 32 29 27 26 25 25 24 23 22 22 22 23 23 23 23 22 22 22 22 22 22 22 23 24 24 24 24 25 25 26 27 27 27 26 26 26 26 27 27 27 28 27 27 26 25 25 26 26 27 27 26 26 25 25 26 27 28 30 30 30 32 33 35
29 30 31 32 32 32 31 30 29 29 29 29 28 30 31 31 31 32 32 32 33 33 30 28 26 26 26 25 24 23 23 23 24 24 24 24 23 23 23 23 23 23 23 23 24 24 24 24 24 25 25 25 26 26 26 26 26 26 26 26 27 27 27 27 27 27 27 27 27 27 27 26 26 25 25 25 26 27 28 30 31 30 31 34 36
33 34 35 34 34 33 32 31 30 29 29 28 27 28 29 30 30 31 31 33 34 32 30 28 27 26 26 25 24 24 24 25 25 24 24 24 24 23 23 23 23 23 23 24 24 24 24 24 24 25 25 25 26 26 26 25 24 25 25 26 27 28 28 29 30 31 31 31 31 31 30 28 26 25 25 25 25 26 28 30 31 30 32 35 37
34 35 35 34 33 33 33 32 30 29 28 28 28 30 31 31 32 32 32 34 33 32 30 29 27 27 26 26 25 25 25 25 25 24 24 24 23 23 23 23 23 23 23 23 24 24 23 24 25 25 26 26 26 26 25 24 23 23 23 24 25 27 28 29 31 32 33 33 33 33 32 30 29 29 28 27 27 28 29 30 31 31 33 35 38
34 34 34 34 33 33 32 31 29 29 28 29 30 31 32 33 34 33 33 34 32 31 30 29 27 27 26 26 26 25 25 25 25 24 24 24 24 24 24 24 24 24 24 24 24 24 23 23 24 26 26 27 27 26 24 24 23 22 20 20 22 25 28 29 31 32 33 33 33 32 31 31 31 31 31 31 31 31 31 32 32 31 31 32 34
32 33 33 34 33 33 32 31 31 30 31 31 31 32 33 33 34 35 35 33 32 31 30 29 28 27 26 26 25 25 25 25 25 24 24 24 24 24 24 24 25 24 24 24 24 24 24 24 24 26 27 27 27 25 24 23 23 21 18 18 21 24 28 30 31 32 33 32 31 31 32 32 32 31 32 32 33 33 32 32 33 32 32 33 35
32 33 34 34 34 34 33 32 32 33 32 31 31 32 33 33 34 34 33 32 31 31 29 29 27 26 26 25 25 25 26 25 25 25 25 25 24 24 24 24 25 25 25 25 25 25 24 24 24 26 27 28 27 25 24 23 22 20 18 19 22 25 28 30 32 32 32 31 30 31 32 33 32 31 31 32 33 32 32 33 33 34 35 36 37
32 34 36 37 37 36 36 35 35 34 32 30 30 31 33 32 33 33 32 31 31 30 29 27 26 26 26 25 25 25 25 25 25 25 25 25 24 24 24 25 25 25 25 25 25 25 25 24 24 25 27 28 27 25 24 23 21 19 18 20 23 26 29 30 31 31 31 30 30 30 31 32 32 31 30 30 31 32 33 34 35 36 37 37 38
33 36 39 41 39 37 35 34 33 31 30 30 30 30 30 31 32 32 31 30 29 28 27 26 25 25 25 25 25 25 25 25 25 25 25 25 24 24 24 25 26 26 25 25 25 25 25 25 25 25 27 29 28 25 24 23 21 19 19 21 24 26 27 28 29 29 29 28 28 29 30 31 31 31 30 29 30 31 33 34 36 37 38 38 39
39 42 42 41 39 37 35 33 31 30 30 29 28 28 29 31 31 31 30 29 28 28 27 26 25 26 25 24 25 25 25 25 24 25 25 24 24 24 24 25 26 26 26 26 26 26 26 26 26 26 27 29 29 26 24 24 22 19 19 21 23 24 25 26 27 27 26 27 27 28 29 30 31 31 31 30 30 31 32 34 36 38 39 40 40
42 40 39 38 38 37 35 33 32 31 30 29 28 30 30 30 29 28 28 28 28 28 26 25 25 25 24 24 25 25 25 25 25 25 25 24 24 24 24 25 26 27 27 26 26 27 26 26 26 26 27 29 30 28 25 24 23 20 17 18 21 22 24 25 26 26 26 27 28 28 27 28 29 30 31 31 30 30 32 35 37 39 41 41 41
39 37 37 37 37 36 34 32 31 30 29 29 31 32 30 28 28 27 27 28 28 27 25 24 25 24 24 24 25 25 25 24 24 24 24 24 24 24 24 25 25 26 27 27 27 27 28 27 26 27 27 28 30 29 26 25 23 19 16 17 20 22 24 25 26 27 27 27 28 28 27 26 27 28 30 31 31 32 34 36 38 40 41 41 42
37 36 36 37 37 35 31 28 27 27 28 29 31 31 30 29 28 27 27 28 28 26 24 24 24 24 23 24 24 24 24 24 24 23 23 24 24 24 24 25 25 26 27 28 27 27 28 28 26 27 27 27 28 29 26 24 23 19 15 16 19 22 24 26 27 27 27 28 28 27 27 27 28 30 32 33 33 35 36 37 39 39 40 42 43
37 37 38 38 37 34 29 27 26 26 27 28 29 29 29 28 27 27 28 28 26 24 23 24 24 24 23 24 24 23 23 23 23 23 24 24 24 24 24 25 25 26 27 28 28 27 28 28 27 27 27 26 26 27 26 24 22 19 15 15 18 21 23 25 26 26 26 28 29 29 29 31 32 34 34 33 33 35 36 37 38 38 39 41 40
39 39 38 35 32 29 27 25 25 25 26 27 26 25 25 25 26 27 27 25 23 23 23 23 24 24 24 24 23 23 23 23 23 23 24 24 24 24 25 24 25 27 28 29 29 28 28 29 28 27 27 26 25 25 24 24 22 20 16 15 17 20 22 23 25 27 28 30 31 31 31 32 31 30 30 31 32 34 36 38 38 39 40 40 38
41 39 35 32 31 30 28 26 26 26 27 27 25 23 24 25 26 26 25 23 22 22 23 24 24 24 24 24 23 23 23 23 23 23 24 25 24 24 24 24 25 26 28 29 29 28 28 29 29 28 27 26 25 24 23 23 23 22 18 16 18 20 21 22 26 29 31 31 31 30 30 29 29 29 30 32 34 36 37 38 38 38 37 37 38
40 38 35 34 34 34 31 29 30 30 29 26 23 23 24 26 26 25 23 22 21 22 23 24 24 24 24 24 24 23 23 23 23 23 24 25 24 24 24 24 24 26 28 29 28 28 28 29 29 29 28 26 25 25 24 23 24 24 21 19 19 20 21 23 26 29 30 29 28 28 29 29 29 30 31 32 33 33 32 33 33 33 32 32 33
39 37 35 34 33 32 31 31 30 29 26 23 21 23 25 25 24 23 22 21 22 22 23 24 24 24 24 24 24 24 23 23 22 23 24 24 24 24 24 23 24 25 27 28 28 27 27 28 29 29 29 26 25 25 25 25 25 25 24 23 22 22 23 24 27 29 28 27 27 28 28 30 31 31 32 33 33 30 27 27 28 28 28 28 28
38 36 34 34 35 34 33 31 27 24 22 21 21 22 23 24 24 22 21 21 22 23 23 23 24 24 24 24 24 24 23 23 22 22 23 23 23 23 23 23 24 25 26 27 27 27 27 28 29 29 29 27 25 26 27 27 27 27 27 26 25 24 25 27 29 29 28 27 27 28 29 32 34 36 36 35 32 29 28 28 27 26 24 23 23
36 35 36 36 36 34 31 27 24 21 20 21 22 21 21 22 23 22 21 22 22 23 24 24 24 25 24 25 25 24 23 23 22 22 23 22 22 22 23 23 23 24 25 26 26 27 27 28 29 28 27 26 27 28 29 30 29 28 29 28 27 28 29 30 31 30 29 29 30 31 32 34 36 37 35 32 30 29 28 27 26 23 21 20 19
36 38 37 36 34 31 28 25 23 22 22 23 22 21 20 21 21 21 21 22 23 24 24 25 26 26 26 25 25 24 24 23 23 23 22 22 21 21 23 23 23 23 25 25 26 26 27 26 26 26 26 27 29 30 31 31 30 29 30 30 29 30 31 31 31 30 30 30 31 33 34 36 36 35 33 30 29 27 26 25 24 21 19 18 16
39 38 34 32 31 29 26 25 24 23 24 24 22 20 20 20 20 21 21 22 24 24 25 26 27 26 26 26 25 24 23 23 23 23 22 21 21 21 22 23 23 22 23 24 25 26 25 24 24 26 27 30 32 33 31 31 30 30 30 30 29 30 31 31 30 29 29 31 32 33 35 36 35 32 30 29 28 26 25 23 22 20 18 17 15
38 35 31 30 28 26 25 25 25 25 25 24 22 20 20 19 20 21 22 23 24 25 26 27 27 26 26 25 24 24 23 23 23 23 22 22 22 21 22 23 23 23 23 24 25 26 25 26 28 30 31 31 32 32 31 31 31 29 28 29 30 30 30 30 28 28 28 30 32 34 35 34 31 29 28 28 27 25 24 23 21 19 18 16 15
35 32 30 28 26 25 25 25 26 26 25 22 21 20 19 20 20 21 22 23 24 25 26 27 26 26 25 24 24 24 23 23 23 23 23 24 24 23 21 21 21 22 23 23 23 23 24 25 28 31 31 30 30 31 32 32 30 28 28 29 29 29 28 26 25 25 27 31 33 34 33 30 27 26 26 25 24 23 22 23 22 20 18 16 16
Wind_Direction
92 97 103 102 97 91 84 76 67 54 42 30 20 13 6 1 357 352 349 347 345 343 342 340 338 337 336 335 333 333 331 326 323 321 318 318 317 316 316 313 311 309 307 304 302 300 296 295 296 295 294 294 293 293 292 290 287 285 284 283 284 286 287 288 288 291 293 296 297 293 290 293 299 302 299 296 293 293 293 291 292 292 289 293 301
98 101 107 103 91 83 73 60 50 31 21 14 5 1 355 351 349 346 344 341 340 338 337 336 334 333 332 330 328 326 325 321 318 317 314 313 313 312 312 310 307 305 302 301 299 296 294 295 296 294 293 293 292 292 290 289 286 283 282 282 283 284 287 289 289 292 293 293 294 294 298 300 295 288 286 286 282 284 288 282 280 281 283 293 300
109 112 116 105 86 70 50 32 24 11 7 1 353 350 345 343 341 339 337 335 334 333 332 332 330 329 327 325 322 320 319 316 313 312 310 309 310 309 310 308 306 304 300 299 297 294 294 296 295 293 294 294 293 293 290 289 288 283 281 282 286 287 289 288 282 277 279 285 293 297 304 306 299 295 282 261 255 261 262 264 272 280 289 296 297
127 138 140 117 87 52 29 11 4 356 351 346 342 340 337 336 334 332 331 329 329 328 328 328 326 324 322 320 318 316 315 312 310 309 307 307 307 307 308 306 305 303 299 299 297 294 296 298 296 295 296 295 294 294 292 290 286 282 282 285 290 292 292 291 284 276 275 284 295 297 302 302 300 304 288 259 244 244 242 249 268 282 292 293 286
151 167 172 149 96 18 3 350 345 339 336 334 333 332 331 330 329 328 327 326 325 325 324 324 323 321 320 319 318 316 315 313 310 308 306 305 305 305 307 305 304 303 300 299 297 295 297 298 297 297 297 295 294 294 292 288 284 283 287 290 292 294 295 294 290 286 281 275 275 287 300 299 291 298 300 289 270 255 254 257 261 265 274 279 278
184 197 202 219 281 316 325 324 325 326 327 327 327 327 327 326 325 325 324 322 321 321 321 321 322 321 321 321 319 318 317 314 310 308 307 306 305 305 306 304 304 303 301 300 298 297 297 297 297 297 298 297 295 293 291 288 286 287 289 290 291 293 293 293 292 291 284 274 263 263 268 273 285 296 302 298 289 278 270 267 263 253 252 262 270
212 217 229 260 281 297 302 300 308 316 319 321 322 323 323 322 322 321 319 318 317 318 319 320 321 322 322 322 321 319 316 311 307 305 305 305 304 305 305 304 303 302 301 300 300 299 299 300 299 298 299 299 297 295 292 290 290 290 289 290 292 292 291 291 293 292 287 282 273 260 253 253 264 277 286 294 296 292 286 281 279 273 267 266 264
224 231 243 260 273 281 280 284 298 309 313 317 319 319 319 319 318 316 315 314 314 315 317 319 320 320 321 321 319 316 312 308 304 303 303 302 302 304 305 304 303 301 300 300 301 301 300 302 304 303 303 304 301 298 296 294 293 292 291 291 291 291 291 291 291 291 289 286 278 268 264 258 254 258 265 274 285 289 289 287 286 285 282 277 271
230 240 253 260 266 268 268 278 294 304 309 313 314 315 315 315 314 314 312 312 313 314 315 317 318 319 320 319 315 312 308 304 303 302 302 300 300 302 305 304 303 302 302 301 303 303 302 305 310 308 308 309 307 306 303 301 300 299 297 296 295 293 292 291 289 289 288 286 283 278 274 270 266 262 260 260 268 280 286 287 289 290 287 283 279
236 248 257 259 260 260 264 276 290 298 303 306 308 310 311 311 311 311 310 310 312 313 314 316 318 319 319 317 312 308 304 303 301 301 301 300 299 302 304 304 305 305 303 304 305 305 304 308 312 311 313 313 312 311 309 308 307 305 304 303 302 300 297 295 292 290 288 285 284 282 279 278 278 276 272 269 269 274 280 284 287 289 288 285 282
243 251 255 256 256 258 265 277 287 292 295 299 302 305 307 307 307 307 308 308 310 312 314 316 317 319 319 314 309 305 304 303 302 301 301 300 300 302 304 305 306 306 304 304 305 305 306 309 312 312 314 315 313 313 312 311 310 308 308 307 306 305 304 302 297 294 292 289 285 281 279 277 276 276 273 270 270 273 278 281 282 283 283 282 282
247 251 253 253 255 260 269 277 282 286 290 294 298 301 304 306 306 305 306 307 309 311 314 315 317 318 316 311 306 304 303 302 302 301 300 299 299 301 304 305 306 306 306 306 306 307 308 310 312 313 314 315 314 313 313 312 311 309 308 307 307 307 306 304 302 299 297 294 291 286 280 274 268 265 264 262 262 266 275 279 280 283 282 279 279
248 251 253 254 257 264 272 276 278 283 289 293 295 297 303 305 304 302 302 304 307 310 313 316 318 317 313 307 302 301 300 300 300 299 298 296 296 299 303 305 305 305 306 306 307 308 309 311 312 313 314 315 313 313 312 311 310 309 308 307 307 307 307 305 302 302 300 297 295 291 286 280 273 267 264 262 261 263 270 276 279 282 283 281 282
249 251 255 257 260 266 273 275 277 281 286 290 290 293 300 303 300 297 297 300 304 309 314 317 318 315 310 305 301 298 297 297 297 297 296 293 293 297 302 304 303 304 304 305 306 307 309 311 312 312 314 314 313 313 312 311 310 309 307 307 306 306 306 304 302 301 299 296 295 291 287 283 279 276 273 271 269 268 270 276 283 287 284 283 284
251 253 257 259 262 267 271 274 275 278 282 284 285 289 295 299 297 294 294 297 302 307 313 317 317 311 306 304 301 297 296 296 295 295 292 289 290 294 299 300 300 302 303 304 305 307 309 310 311 312 314 314 314 314 313 312 311 309 308 307 307 307 306 303 301 300 298 297 295 292 289 285 282 280 278 275 272 269 267 269 277 287 289 287 286
251 254 257 260 264 268 271 272 272 274 277 279 282 287 293 299 297 293 293 296 301 305 312 318 316 307 302 301 300 298 297 296 294 293 289 286 288 293 297 299 299 301 302 304 306 307 308 309 310 311 312 313 313 314 313 312 312 310 310 309 309 310 308 305 304 302 300 300 298 295 293 290 287 284 279 275 271 268 266 265 267 276 286 290 289
253 255 258 262 266 270 272 272 270 271 274 277 281 286 294 302 298 292 293 295 299 304 312 319 316 305 298 297 298 298 297 296 295 294 292 290 290 294 298 299 300 302 303 304 306 307 308 308 309 309 310 311 311 312 311 311 311 310 310 311 311 312 310 307 307 305 303 302 300 298 295 292 289 285 281 278 276 272 268 265 263 262 270 281 288
257 257 260 262 265 270 272 272 271 272 273 275 279 284 295 302 297 290 291 294 299 305 312 318 316 305 295 294 295 295 296 296 296 295 295 293 293 294 297 299 300 301 302 304 305 306 308 308 308 309 309 310 309 310 309 309 309 308 309 310 310 311 309 307 307 305 303 301 299 297 294 291 289 286 284 282 279 278 274 269 266 261 261 268 277
259 258 258 257 260 266 270 272 274 272 271 273 275 280 292 299 294 289 290 294 299 306 312 316 315 305 294 292 293 293 294 294 294 294 293 292 292 293 295 297 299 300 302 304 306 307 308 308 309 309 309 310 309 309 308 308 307 307 308 308 308 308 307 305 305 303 300 299 297 296 294 290 289 286 285 283 279 278 278 275 273 270 267 267 269
263 261 259 258 262 267 269 274 276 269 265 268 269 274 286 293 290 287 288 293 298 304 310 313 311 303 292 290 290 290 291 291 291 291 290 290 291 292 294 295 297 299 302 305 306 307 308 308 309 309 309 309 308 308 307 307 306 306 307 307 308 308 305 303 303 301 300 299 296 295 292 289 288 286 284 283 280 279 278 277 278 278 277 276 274
264 262 262 264 269 272 273 277 272 261 258 261 265 272 282 287 286 285 286 289 295 301 306 309 307 299 291 290 289 288 288 288 288 288 288 289 289 290 292 293 295 298 301 303 304 306 307 307 307 307 308 308 307 307 307 306 306 307 307 308 308 307 304 302 302 300 299 298 295 293 290 289 288 286 285 284 283 283 283 283 284 284 282 282 280
266 265 267 268 269 270 270 270 264 260 261 262 266 272 277 279 281 282 284 287 293 300 304 305 301 293 289 290 290 289 290 290 289 288 287 288 288 289 291 292 295 298 300 302 303 305 305 306 306 306 307 307 306 306 306 306 306 306 306 306 305 304 303 302 301 300 299 298 295 292 290 289 287 284 284 286 287 288 289 288 288 288 287 286 285
269 269 268 264 264 265 266 268 268 268 268 266 266 268 269 272 276 279 283 287 293 300 303 301 295 289 288 288 288 290 292 291 291 290 290 291 291 291 293 294 297 299 301 303 304 305 306 306 306 306 306 307 306 306 306 306 306 306 306 306 304 303 303 302 301 300 298 297 294 292 290 287 285 283 283 285 287 288 289 290 291 290 289 289 290
267 267 267 267 268 268 269 273 274 271 267 265 266 265 262 265 271 275 281 286 292 299 301 296 290 286 285 284 284 287 288 289 288 289 289 290 290 291 292 294 297 300 302 303 304 305 305 304 304 304 305 305 306 306 305 305 306 307 307 306 304 303 302 301 300 298 297 295 292 291 289 285 281 280 282 284 286 287 288 290 290 290 288 288 288
270 270 270 270 270 268 269 273 274 271 265 260 261 263 260 261 265 271 277 284 291 297 298 293 286 283 281 280 282 284 285 285 285 285 285 286 287 289 292 294 297 298 300 301 302 302 302 302 303 304 305 306 306 305 305 306 307 307 306 305 304 303 302 301 299 297 295 294 292 290 287 284 280 279 283 286 286 288 289 289 288 287 287 286 284
287 285 283 278 275 273 273 275 277 277 271 263 259 259 260 259 260 266 273 281 289 296 296 290 283 279 278 278 280 281 282 282 282 281 282 284 287 289 291 294 295 296 298 299 300 300 300 302 304 306 307 307 307 306 306 307 307 306 305 304 303 302 301 300 298 297 295 293 291 289 287 284 281 282 285 287 288 288 288 287 287 287 289 287 283
289 289 289 287 285 282 278 276 278 281 280 271 261 257 258 258 257 263 271 279 288 294 293 287 279 277 276 276 279 281 281 281 279 279 281 285 288 289 290 292 293 295 297 298 299 300 301 303 304 305 305 306 306 305 306 307 306 306 305 303 302 301 300 299 297 294 292 290 288 287 286 283 282 284 286 287 289 289 287 286 285 287 289 288 284
290 290 290 290 289 287 281 278 278 281 282 276 265 258 258 258 257 262 270 279 287 291 289 283 278 275 275 276 279 280 279 278 277 279 283 285 287 288 290 291 292 294 297 298 299 301 302 303 303 303 303 303 303 304 306 307 307 305 303 301 300 299 298 296 294 290 289 289 289 288 287 285 283 284 286 287 288 288 288 286 285 286 288 286 285
300 299 297 295 294 292 287 284 283 283 281 276 268 262 259 258 258 262 270 280 288 289 285 279 274 273 274 276 278 278 276 276 278 281 283 285 287 288 290 291 293 296 298 299 298 299 299 300 300 300 301 302 303 305 307 309 308 306 304 303 302 302 301 299 298 296 295 295 295 294 291 289 286 285 285 285 286 287 287 286 285 286 288 286 286
300 300 300 296 294 293 289 286 285 283 278 274 270 265 260 258 257 261 271 283 287 284 279 275 272 271 272 275 276 276 276 276 279 281 282 283 285 287 289 291 294 296 296 296 295 295 297 298 300 301 303 304 305 306 308 309 309 308 309 308 306 306 304 302 302 301 299 299 299 298 297 294 291 289 287 286 287 287 286 288 289 290 291 288 285
298 299 300 297 295 292 289 286 285 283 277 272 271 268 262 258 256 262 275 284 283 279 275 272 272 272 273 275 276 277 277 278 280 282 282 284 287 288 290 292 293 293 293 292 293 294 297 299 302 303 304 305 305 306 309 310 309 307 307 306 304 301 298 294 293 293 293 293 294 295 296 295 292 291 290 290 290 288 287 289 290 289 289 285 281
300 301 301 299 296 292 288 284 282 282 278 273 271 267 261 257 257 268 281 285 280 276 273 271 272 272 274 275 277 278 278 279 282 283 285 287 288 289 290 291 292 292 293 293 294 296 298 300 302 303 303 304 305 307 310 310 307 305 305 303 300 296 294 292 291 290 290 290 292 293 293 290 287 286 287 287 287 286 286 287 287 286 284 280 279
303 304 304 301 298 293 288 283 280 278 276 272 268 263 259 258 262 273 282 283 279 275 272 272 272 273 274 277 278 278 279 281 283 284 285 286 287 289 290 292 293 293 293 294 295 296 298 300 302 303 304 304 306 309 310 308 306 306 305 302 297 293 292 291 290 289 289 290 291 289 288 286 283 281 280 280 280 281 283 284 284 283 280 279 281
305 303 302 299 297 293 289 285 283 280 274 268 264 260 260 263 268 274 279 281 278 274 272 272 273 274 276 278 279 279 280 282 283 284 285 286 287 289 290 291 292 293 293 294 295 296 297 300 302 304 305 305 307 310 310 307 307 308 305 300 295 290 288 286 286 286 288 289 288 287 287 287 285 282 278 275 275 278 282 282 280 279 280 283 286
303 301 300 298 296 293 288 284 283 281 273 264 259 259 263 269 273 276 280 281 277 273 272 273 274 276 278 279 280 281 281 282 284 284 285 286 288 289 290 291 292 293 294 294 295 296 297 300 303 305 306 305 307 311 311 309 311 311 304 295 290 287 285 285 285 285 287 289 290 291 291 290 289 287 282 276 275 278 280 281 281 281 283 286 287
305 306 305 303 299 294 289 283 281 279 272 262 258 261 269 277 278 279 282 282 277 273 273 274 277 278 279 280 281 281 282 283 284 284 285 287 288 288 290 291 291 292 293 294 295 296 298 300 303 306 306 307 309 313 313 311 313 310 302 294 289 287 286 287 288 290 291 292 291 291 291 291 290 290 287 281 275 276 278 280 282 283 284 286 286
311 309 306 303 300 296 291 284 278 274 269 262 261 272 283 285 282 280 281 278 274 273 274 277 279 280 281 282 282 281 283 285 284 285 286 287 287 288 289 291 292 293 294 295 296 297 298 301 303 306 308 309 310 314 315 313 311 309 303 295 290 288 290 293 296 297 295 292 290 290 290 291 290 290 288 282 275 274 278 281 283 285 287 289 290
314 310 307 305 301 298 293 286 278 272 268 266 271 284 291 288 282 280 278 274 272 273 278 281 282 282 283 283 283 283 285 286 285 286 287 288 288 289 290 291 292 293 295 296 297 297 298 301 303 306 309 310 311 315 316 312 309 311 306 293 288 292 298 300 300 297 293 291 292 293 292 291 291 290 286 280 277 279 281 284 286 289 291 292 292
314 313 311 309 304 299 294 287 279 274 273 277 283 290 292 288 285 281 275 272 272 276 282 284 283 283 282 281 283 285 286 286 287 288 289 288 289 289 290 291 293 294 295 296 297 298 299 301 304 306 308 310 311 312 313 309 308 312 306 292 290 298 302 301 297 295 295 296 299 300 297 293 291 288 283 279 281 283 284 286 289 292 293 292 290
317 316 315 312 306 301 297 291 286 283 283 285 287 290 291 290 288 281 274 273 277 281 286 286 284 283 282 282 285 286 286 287 288 289 289 288 289 290 291 292 294 295 296 297 298 300 300 301 303 304 305 307 308 310 311 309 308 309 301 291 292 298 300 299 299 300 302 302 299 297 295 292 290 287 284 283 283 283 283 286 290 292 292 290 289
319 319 318 314 308 304 302 300 298 294 290 289 288 286 288 289 287 281 278 280 283 286 287 286 285 286 286 287 288 289 289 291 291 292 291 290 290 292 292 294 295 296 296 297 298 300 300 301 302 302 303 305 307 309 310 309 309 310 302 291 293 297 299 300 301 302 301 297 295 294 292 291 291 291 290 289 287 285 284 288 291 291 288 287 291
321 321 320 317 312 309 307 305 304 298 294 294 290 284 284 287 286 284 285 286 287 288 289 288 289 290 291 292 292 293 294 294 294 293 292 291 291 292 292 294 295 295 296 297 299 300 301 301 301 301 302 304 307 310 311 310 312 315 310 298 296 298 298 299 300 299 295 293 295 295 295 295 296 297 296 294 291 289 289 290 290 288 286 286 288
326 324 322 320 317 314 311 311 312 307 299 294 287 281 283 286 286 289 291 290 289 290 291 290 292 293 294 294 294 294 295 294 294 293 292 291 291 291 292 294 295 296 297 297 299 301 302 302 302 303 305 308 310 312 313 313 314 317 314 305 296 295 297 298 297 295 294 295 297 297 298 303 305 302 297 293 291 289 289 290 288 286 286 285 283
329 325 322 320 316 313 311 312 314 308 297 288 286 286 287 287 288 292 294 292 292 293 292 293 295 296 295 294 294 294 294 293 294 294 292 291 291 291 292 294 295 296 296 297 300 303 304 304 304 305 307 310 312 312 312 314 315 317 317 313 303 297 296 295 295 295 298 301 301 300 302 305 302 297 294 293 292 290 289 289 287 286 285 284 284
330 325 322 322 319 316 314 314 313 306 293 287 291 292 289 288 291 294 295 295 296 295 295 296 298 297 296 296 295 294 295 295 296 295 293 292 292 292 293 295 296 295 296 299 302 304 305 305 305 306 308 310 311 310 310 313 315 316 318 319 311 301 297 297 300 303 305 304 302 301 302 302 300 301 305 306 304 301 300 299 295 292 290 287 287
330 327 325 324 322 320 318 316 313 305 296 295 300 298 292 292 295 296 298 300 300 299 299 300 300 298 298 297 296 296 297 297 297 295 293 292 292 293 294 296 297 297 298 301 303 305 306 305 305 306 308 309 308 308 308 310 313 317 319 319 313 308 306 305 307 308 305 301 301 302 302 301 303 308 311 310 307 307 308 305 300 296 293 289 288
331 330 325 324 324 323 321 319 314 306 302 307 308 303 297 297 299 301 304 305 304 304 305 303 302 301 300 299 299 299 300 299 298 296 294 293 294 296 297 298 299 300 301 303 304 305 305 305 305 306 307 306 306 306 306 308 312 317 318 317 315 312 309 307 308 309 306 305 305 303 300 300 304 308 309 306 305 308 308 304 301 298 295 292 292
331 330 326 326 327 326 323 322 318 312 312 314 312 308 306 306 307 309 310 309 308 307 305 303 302 302 302 302 302 302 302 301 300 298 296 296 298 300 299 299 300 302 302 303 303 303 303 304 305 305 305 305 304 304 305 307 312 316 316 314 310 306 304 304 306 306 305 304 302 298 298 302 306 309 308 307 307 310 308 303 303 303 301 297 296
332 330 327 327 329 327 324 324 322 319 318 319 318 317 316 314 313 313 312 309 307 305 302 302 302 303 304 305 304 303 303 301 300 298 297 298 300 301 301 300 301 302 302 302 302 303 305 307 306 304 304 303 302 303 306 307 310 312 310 305 301 298 298 300 300 301 301 298 295 295 299 305 308 308 308 308 309 310 308 305 306 308 308 305 305
333 332 329 329 330 329 326 325 324 322 322 322 323 322 320 317 315 313 309 306 304 301 300 302 304 305 306 307 305 304 304 302 301 301 302 303 303 302 302 303 304 304 303 303 304 305 306 307 303 301 300 299 298 299 301 301 303 303 299 295 293 292 293 294 295 298 296 291 291 297 303 306 307 306 306 307 309 310 310 309 309 311 314 315 316
333 333 332 331 331 329 326 324 322 322 323 323 323 322 319 316 313 309 306 303 302 301 302 304 306 308 308 308 306 305 304 303 302 303 304 305 304 303 301 301 301 300 300 301 301 299 297 295 293 292 294 294 292 291 293 294 295 294 292 293 293 292 293 295 296 294 290 288 293 300 303 304 304 304 304 306 308 310 311 311 311 313 317 320 322
Height
1555 1554 1554 1553 1552 1552 1551 1550 1550 1549 1548 1548 1547 1547 1546 1545 1545 1544 1543 1542 1542 1541 1539 1538 1537 1536 1535 1534 1533 1532 1531 1529 1528 1526 1525 1524 1523 1522 1521 1520 1519 1517 1516 1515 1514 1513 1511 1510 1510 1509 1508 1507 1506 1505 1505 1504 1503 1502 1501 1500 1499 1498 1498 1498 1498 1497 1494 1492 1491 1489 1489 1489 1489 1489 1488 1488 1488 1487 1487 1487 1487 1486 1486 1486 1486
1555 1554 1553 1553 1552 1551 1550 1549 1549 1548 1548 1547 1546 1546 1545 1544 1543 1542 1542 1541 1540 1539 1538 1536 1535 1534 1533 1532 1530 1529 1528 1527 1525 1524 1522 1521 1520 1519 1518 1517 1516 1515 1514 1512 1511 1510 1509 1508 1508 1506 1506 1505 1504 1503 1503 1502 1501 1500 1498 1497 1496 1496 1495 1496 1496 1495 1492 1491 1488 1486 1485 1485 1486 1486 1486 1486 1486 1485 1485 1485 1485 1485 1484 1484 1484
1554 1553 1552 1552 1551 1550 1549 1548 1548 1547 1546 1546 1545 1544 1544 1543 1542 1541 1540 1539 1538 1536 1535 1534 1533 1532 1531 1530 1528 1527 1526 1524 1523 1521 1520 1518 1517 1516 1515 1514 1513 1512 1511 1510 1508 1507 1506 1506 1505 1504 1503 1502 1501 1500 1500 1499 1498 1497 1495 1494 1493 1493 1493 1493 1493 1493 1491 1489 1488 1486 1484 1482 1481 1483 1483 1483 1483 1482 1483 1483 1483 1483 1482 1482 1481
1553 1552 1551 1550 1549 1549 1548 1547 1546 1546 1545 1544 1543 1542 1541 1540 1539 1538 1537 1536 1535 1534 1533 1532 1531 1529 1528 1527 1526 1524 1523 1522 1520 1518 1517 1516 1514 1513 1512 1511 1510 1509 1507 1507 1505 1503 1503 1503 1502 1501 1500 1499 1498 1497 1497 1497 1495 1494 1493 1492 1491 1490 1490 1490 1490 1491 1490 1489 1488 1486 1484 1482 1480 1480 1480 1479 1481 1481 1480 1481 1481 1480 1480 1480 1479
1552 1551 1549 1549 1548 1547 1546 1546 1545 1544 1543 1542 1541 1540 1539 1538 1537 1536 1535 1534 1533 1532 1531 1530 1528 1527 1525 1524 1523 1521 1520 1518 1516 1515 1514 1513 1511 1510 1510 1508 1507 1506 1504 1504 1503 1501 1500 1500 1499 1498 1497 1497 1496 1495 1494 1494 1492 1491 1490 1490 1489 1488 1487 1486 1487 1488 1488 1488 1488 1486 1485 1483 1480 1479 1477 1475 1477 1478 1478 1478 1479 1478 1478 1478 1477
1551 1549 1548 1547 1547 1546 1545 1544 1543 1542 1541 1540 1539 1538 1537 1536 1535 1534 1532 1531 1530 1529 1528 1527 1526 1524 1522 1521 1519 1518 1517 1515 1513 1512 1510 1509 1508 1507 1507 1505 1504 1503 1501 1500 1499 1498 1497 1497 1497 1495 1495 1494 1493 1492 1492 1491 1490 1489 1489 1487 1487 1487 1485 1483 1483 1485 1485 1486 1486 1485 1485 1483 1480 1479 1477 1473 1470 1473 1475 1475 1475 1476 1476 1476 1475
1549 1548 1547 1546 1545 1544 1543 1542 1541 1540 1539 1538 1536 1535 1534 1533 1532 1531 1530 1529 1528 1527 1526 1524 1523 1521 1520 1518 1517 1515 1513 1512 1511 1509 1507 1506 1505 1504 1504 1503 1502 1500 1499 1497 1496 1495 1494 1493 1493 1493 1492 1491 1490 1490 1489 1488 1487 1487 1486 1485 1484 1484 1483 1482 1481 1481 1482 1482 1483 1482 1482 1481 1480 1478 1478 1474 1468 1466 1469 1471 1471 1472 1473 1472 1472
1547 1546 1545 1544 1543 1542 1541 1539 1538 1537 1536 1535 1534 1533 1532 1531 1530 1529 1527 1526 1525 1524 1523 1521 1520 1518 1517 1515 1514 1512 1511 1509 1508 1506 1505 1504 1502 1501 1501 1500 1499 1498 1497 1495 1494 1493 1491 1491 1491 1490 1489 1488 1488 1487 1486 1485 1485 1484 1483 1483 1482 1482 1481 1480 1479 1479 1478 1478 1479 1479 1478 1477 1477 1476 1476 1475 1471 1465 1463 1466 1467 1468 1469 1468 1469
1545 1544 1543 1542 1541 1539 1538 1537 1536 1535 1534 1533 1532 1531 1530 1528 1527 1526 1524 1523 1522 1521 1520 1519 1517 1516 1514 1513 1510 1509 1508 1506 1505 1504 1503 1501 1499 1499 1498 1497 1497 1496 1494 1493 1492 1490 1489 1488 1488 1487 1486 1486 1485 1484 1483 1482 1482 1481 1480 1480 1479 1479 1479 1478 1477 1476 1476 1475 1475 1475 1474 1474 1473 1474 1473 1473 1472 1467 1462 1462 1464 1464 1464 1464 1465
1544 1543 1542 1540 1539 1537 1536 1534 1534 1533 1531 1530 1529 1528 1527 1525 1524 1523 1521 1519 1518 1517 1516 1515 1514 1512 1511 1509 1507 1506 1505 1503 1502 1501 1500 1498 1497 1496 1496 1495 1494 1493 1492 1491 1490 1488 1487 1486 1485 1484 1484 1483 1482 1481 1480 1480 1479 1478 1477 1477 1476 1476 1476 1476 1475 1474 1473 1472 1472 1472 1471 1471 1470 1470 1470 1470 1470 1468 1463 1460 1461 1461 1459 1459 1460
1542 1541 1539 1538 1536 1534 1533 1532 1531 1530 1529 1527 1526 1524 1523 1522 1521 1520 1518 1517 1515 1514 1513 1512 1510 1509 1507 1505 1503 1502 1501 1500 1499 1498 1497 1495 1494 1493 1493 1492 1491 1490 1489 1488 1487 1486 1484 1483 1483 1482 1481 1480 1479 1478 1477 1477 1476 1475 1474 1474 1473 1473 1472 1472 1471 1471 1470 1469 1469 1469 1468 1468 1467 1467 1467 1468 1467 1466 1463 1459 1458 1458 1456 1454 1455
1539 1538 1536 1534 1533 1531 1531 1530 1528 1527 1526 1524 1522 1521 1519 1518 1518 1516 1515 1514 1512 1511 1510 1509 1507 1506 1504 1502 1500 1499 1498 1497 1496 1495 1493 1492 1490 1490 1489 1489 1488 1487 1486 1485 1485 1483 1482 1481 1480 1479 1478 1478 1477 1476 1475 1474 1473 1472 1472 1471 1470 1470 1469 1469 1468 1467 1467 1466 1465 1466 1465 1465 1465 1464 1464 1464 1464 1463 1461 1457 1455 1455 1452 1449 1450
1535 1534 1532 1530 1529 1528 1527 1527 1525 1523 1522 1521 1519 1518 1516 1515 1514 1513 1512 1511 1510 1508 1507 1505 1504 1502 1501 1499 1497 1496 1495 1494 1493 1492 1491 1489 1488 1487 1486 1485 1485 1484 1483 1482 1481 1481 1479 1478 1477 1476 1476 1475 1474 1473 1472 1471 1470 1469 1469 1468 1467 1467 1466 1465 1465 1464 1463 1463 1462 1461 1461 1461 1461 1461 1461 1461 1460 1460 1459 1455 1453 1453 1450 1445 1446
1532 1530 1529 1527 1526 1525 1524 1523 1522 1520 1519 1518 1517 1515 1513 1512 1511 1511 1510 1509 1507 1505 1504 1502 1500 1498 1497 1496 1495 1493 1492 1491 1490 1489 1488 1486 1485 1484 1483 1483 1482 1481 1480 1479 1478 1477 1477 1476 1475 1474 1473 1472 1471 1470 1469 1468 1468 1467 1466 1465 1464 1464 1463 1462 1461 1461 1460 1459 1459 1458 1457 1457 1457 1457 1458 1457 1457 1457 1456 1454 1451 1450 1448 1444 1442
1528 1526 1525 1523 1522 1521 1521 1519 1518 1517 1516 1515 1514 1512 1511 1509 1509 1508 1507 1506 1505 1503 1501 1499 1497 1495 1493 1492 1492 1490 1489 1488 1487 1486 1485 1483 1482 1481 1481 1480 1479 1478 1477 1476 1476 1475 1474 1473 1472 1471 1470 1469 1468 1467 1466 1465 1464 1463 1463 1462 1461 1461 1460 1459 1458 1457 1456 1456 1456 1455 1454 1454 1454 1454 1454 1454 1454 1454 1453 1453 1451 1448 1444 1441 1439
1524 1522 1520 1519 1518 1517 1517 1516 1515 1513 1513 1512 1511 1509 1508 1507 1506 1505 1503 1502 1501 1500 1498 1496 1494 1492 1490 1489 1488 1487 1486 1485 1484 1483 1482 1481 1479 1478 1478 1477 1476 1475 1474 1473 1473 1472 1471 1470 1469 1468 1467 1466 1465 1464 1463 1462 1461 1460 1459 1458 1458 1457 1456 1455 1454 1454 1453 1453 1452 1452 1451 1450 1450 1450 1450 1450 1451 1451 1450 1450 1450 1448 1444 1439 1436
1520 1518 1517 1516 1514 1514 1513 1512 1511 1510 1509 1509 1507 1506 1504 1503 1503 1501 1500 1499 1497 1497 1495 1493 1491 1489 1488 1486 1485 1484 1483 1481 1480 1480 1479 1478 1476 1475 1474 1474 1473 1472 1471 1470 1470 1469 1468 1467 1466 1465 1464 1463 1462 1461 1460 1459 1458 1457 1456 1455 1454 1454 1453 1452 1451 1450 1450 1449 1449 1448 1448 1447 1447 1447 1447 1447 1447 1447 1447 1446 1446 1446 1445 1440 1436
1516 1514 1514 1512 1511 1510 1509 1508 1507 1506 1505 1505 1504 1503 1501 1500 1499 1498 1496 1495 1494 1492 1491 1490 1488 1486 1485 1483 1482 1481 1479 1478 1477 1476 1475 1474 1473 1472 1471 1470 1470 1469 1468 1467 1467 1466 1465 1464 1463 1462 1461 1460 1459 1458 1457 1456 1455 1454 1453 1452 1451 1450 1449 1448 1448 1447 1447 1446 1445 1445 1445 1444 1444 1443 1443 1443 1443 1443 1442 1443 1442 1442 1442 1440 1437
1513 1511 1511 1509 1508 1507 1505 1504 1503 1502 1501 1500 1500 1499 1498 1497 1496 1494 1493 1491 1490 1488 1487 1486 1485 1483 1481 1480 1479 1477 1476 1475 1474 1473 1472 1471 1470 1469 1468 1467 1466 1466 1465 1464 1463 1463 1462 1461 1460 1459 1458 1457 1456 1455 1454 1453 1452 1451 1450 1449 1448 1448 1446 1445 1445 1444 1444 1443 1442 1442 1441 1441 1440 1440 1440 1439 1439 1439 1439 1438 1438 1438 1438 1437 1436
1508 1507 1507 1505 1505 1504 1502 1501 1499 1497 1496 1496 1496 1495 1494 1493 1492 1491 1490 1488 1486 1485 1483 1482 1481 1480 1478 1477 1476 1475 1473 1472 1471 1470 1469 1468 1467 1466 1465 1464 1463 1463 1462 1461 1460 1460 1459 1458 1457 1456 1455 1454 1453 1452 1451 1450 1449 1448 1447 1446 1445 1445 1443 1442 1442 1441 1441 1440 1439 1438 1438 1437 1437 1437 1436 1436 1436 1436 1435 1435 1434 1434 1434 1433 1432
1504 1503 1502 1501 1501 1500 1498 1497 1495 1493 1492 1491 1491 1491 1490 1489 1488 1487 1486 1485 1484 1482 1480 1479 1478 1476 1474 1473 1472 1471 1470 1469 1468 1467 1466 1465 1464 1463 1463 1462 1460 1460 1459 1458 1457 1457 1456 1455 1454 1453 1452 1451 1450 1449 1448 1447 1446 1445 1444 1443 1442 1441 1440 1439 1438 1438 1437 1437 1436 1435 1434 1434 1434 1433 1432 1432 1432 1432 1432 1431 1431 1430 1430 1430 1429
1500 1499 1498 1497 1497 1496 1494 1493 1491 1490 1489 1488 1488 1487 1486 1486 1485 1484 1483 1481 1480 1479 1477 1476 1474 1472 1471 1470 1469 1467 1467 1466 1465 1464 1463 1462 1461 1460 1460 1459 1458 1457 1456 1455 1455 1454 1453 1452 1451 1450 1449 1448 1447 1446 1445 1444 1443 1442 1441 1440 1439 1438 1437 1436 1435 1434 1433 1433 1432 1431 1430 1430 1431 1430 1429 1429 1428 1428 1428 1427 1427 1427 1425 1426 1425
1497 1496 1495 1494 1493 1493 1493 1490 1488 1486 1485 1484 1484 1483 1483 1482 1481 1480 1478 1478 1477 1475 1473 1472 1470 1469 1467 1466 1465 1464 1463 1462 1461 1460 1459 1459 1458 1457 1456 1455 1454 1454 1453 1452 1451 1450 1449 1448 1447 1447 1446 1445 1444 1443 1442 1441 1440 1439 1438 1437 1436 1435 1433 1432 1431 1430 1429 1429 1428 1427 1427 1427 1427 1426 1425 1425 1425 1425 1425 1423 1423 1423 1421 1421 1421
1493 1493 1492 1492 1490 1490 1489 1487 1484 1482 1480 1480 1479 1479 1478 1478 1477 1476 1475 1474 1473 1471 1470 1468 1466 1465 1464 1462 1461 1460 1460 1459 1458 1457 1456 1455 1455 1454 1453 1452 1451 1450 1450 1449 1448 1447 1446 1445 1444 1443 1442 1442 1441 1440 1439 1438 1437 1436 1434 1433 1432 1431 1430 1428 1427 1426 1426 1425 1424 1423 1423 1423 1423 1422 1421 1422 1422 1421 1421 1420 1419 1418 1418 1416 1417
1490 1489 1488 1488 1486 1485 1485 1483 1481 1479 1477 1476 1475 1474 1474 1473 1474 1473 1471 1470 1469 1468 1466 1464 1463 1461 1460 1459 1458 1457 1456 1455 1455 1454 1453 1452 1452 1451 1450 1449 1448 1447 1446 1446 1445 1444 1443 1442 1441 1440 1439 1438 1437 1436 1435 1434 1434 1433 1431 1429 1428 1427 1426 1425 1423 1422 1422 1421 1420 1419 1419 1419 1419 1418 1417 1417 1418 1417 1417 1416 1415 1414 1414 1413 1412
1488 1487 1485 1484 1482 1481 1480 1479 1478 1476 1474 1473 1472 1471 1469 1469 1470 1469 1468 1467 1465 1464 1463 1461 1459 1458 1456 1456 1454 1454 1453 1452 1451 1451 1450 1449 1448 1448 1447 1446 1445 1444 1443 1443 1442 1441 1440 1439 1438 1437 1435 1435 1434 1433 1432 1431 1430 1429 1427 1426 1425 1423 1422 1421 1419 1418 1417 1417 1416 1414 1414 1415 1414 1413 1413 1413 1413 1413 1413 1412 1411 1410 1410 1409 1408
1485 1483 1482 1480 1478 1477 1476 1475 1474 1473 1471 1469 1468 1466 1465 1465 1466 1466 1465 1463 1462 1461 1459 1457 1456 1454 1453 1452 1451 1450 1450 1449 1448 1447 1447 1446 1445 1444 1443 1443 1442 1441 1440 1439 1438 1437 1436 1435 1434 1433 1432 1431 1430 1429 1428 1428 1426 1425 1424 1422 1421 1420 1418 1417 1416 1415 1414 1413 1412 1411 1410 1410 1410 1410 1409 1409 1409 1409 1408 1407 1407 1406 1406 1405 1404
1480 1478 1477 1476 1474 1473 1471 1470 1469 1469 1468 1466 1464 1462 1461 1461 1462 1462 1461 1460 1458 1457 1455 1453 1452 1451 1450 1449 1448 1447 1446 1446 1445 1444 1443 1443 1442 1441 1440 1439 1439 1438 1437 1436 1435 1434 1433 1432 1431 1430 1429 1428 1427 1426 1425 1424 1423 1421 1420 1419 1417 1416 1414 1413 1412 1411 1410 1409 1408 1407 1407 1406 1406 1406 1405 1405 1405 1404 1404 1402 1402 1402 1401 1400 1399
1476 1474 1473 1472 1470 1468 1467 1466 1464 1464 1464 1463 1461 1459 1457 1457 1458 1458 1457 1456 1454 1453 1451 1449 1448 1447 1446 1445 1445 1444 1443 1442 1442 1441 1440 1439 1438 1438 1437 1436 1435 1434 1433 1432 1431 1430 1429 1428 1428 1427 1426 1425 1423 1422 1422 1420 1419 1417 1416 1414 1413 1411 1410 1408 1407 1406 1405 1405 1404 1403 1403 1402 1402 1402 1401 1401 1400 1400 1399 1398 1397 1398 1397 1396 1395
1472 1470 1469 1467 1466 1464 1463 1461 1460 1460 1459 1458 1458 1456 1454 1453 1454 1454 1453 1452 1451 1449 1447 1446 1444 1443 1443 1442 1441 1440 1439 1439 1438 1438 1437 1436 1435 1434 1433 1432 1431 1431 1430 1429 1428 1427 1426 1425 1424 1423 1422 1421 1420 1419 1418 1417 1415 1414 1412 1410 1408 1407 1405 1403 1402 1401 1400 1400 1399 1399 1398 1398 1397 1397 1397 1396 1396 1396 1395 1394 1393 1393 1392 1391 1390
1467 1466 1465 1463 1462 1460 1459 1457 1456 1456 1455 1454 1454 1452 1450 1449 1450 1450 1449 1448 1447 1445 1443 1442 1440 1440 1439 1438 1437 1436 1436 1435 1434 1434 1433 1432 1431 1431 1430 1429 1428 1427 1427 1426 1425 1424 1423 1422 1420 1419 1418 1417 1416 1415 1415 1413 1412 1411 1410 1408 1406 1404 1403 1401 1400 1399 1397 1396 1395 1395 1394 1393 1393 1392 1392 1392 1391 1391 1390 1390 1389 1388 1388 1387 1385
1463 1462 1461 1459 1458 1456 1454 1453 1452 1451 1451 1450 1449 1447 1446 1445 1445 1445 1445 1444 1442 1440 1439 1438 1437 1436 1435 1434 1433 1432 1431 1431 1430 1430 1429 1428 1428 1427 1426 1425 1425 1424 1423 1422 1421 1420 1419 1418 1417 1415 1414 1413 1412 1412 1411 1410 1409 1408 1408 1406 1404 1402 1400 1399 1397 1395 1394 1392 1392 1391 1390 1390 1389 1389 1388 1388 1387 1386 1386 1385 1385 1384 1383 1382 1381
1461 1460 1458 1456 1454 1452 1450 1449 1447 1447 1446 1445 1443 1442 1441 1441 1441 1441 1441 1439 1438 1436 1435 1434 1433 1432 1431 1430 1429 1428 1428 1427 1427 1426 1425 1425 1424 1423 1423 1422 1421 1420 1419 1418 1417 1417 1416 1415 1414 1412 1411 1410 1409 1408 1408 1406 1405 1405 1405 1403 1401 1399 1396 1394 1393 1391 1390 1389 1388 1387 1386 1385 1385 1385 1385 1384 1383 1382 1382 1381 1380 1379 1378 1377 1376
1459 1457 1455 1453 1451 1449 1447 1445 1443 1441 1440 1439 1438 1437 1437 1437 1437 1437 1436 1435 1434 1432 1431 1429 1429 1428 1427 1426 1426 1425 1424 1423 1423 1422 1421 1421 1420 1420 1419 1418 1417 1416 1415 1415 1414 1413 1412 1411 1410 1409 1407 1406 1405 1405 1404 1403 1401 1401 1401 1400 1397 1395 1392 1390 1389 1387 1386 1385 1384 1383 1382 1380 1380 1380 1380 1379 1378 1378 1377 1376 1375 1374 1373 1372 1371
1456 1453 1451 1448 1446 1444 1442 1440 1438 1436 1435 1434 1433 1433 1432 1433 1433 1432 1432 1431 1429 1428 1427 1426 1425 1424 1423 1423 1422 1421 1420 1420 1419 1419 1418 1417 1417 1416 1416 1415 1414 1413 1412 1411 1410 1409 1408 1408 1407 1405 1403 1402 1402 1401 1400 1399 1398 1397 1397 1396 1393 1390 1388 1386 1385 1384 1382 1381 1380 1379 1378 1376 1375 1375 1374 1374 1374 1373 1372 1371 1370 1368 1367 1366 1365
1453 1450 1447 1444 1441 1438 1436 1435 1434 1432 1430 1429 1429 1429 1430 1429 1429 1428 1428 1427 1426 1424 1423 1422 1421 1421 1420 1419 1419 1418 1417 1416 1416 1415 1414 1414 1413 1413 1412 1411 1410 1409 1408 1407 1406 1405 1404 1404 1403 1402 1400 1398 1397 1397 1396 1394 1394 1393 1392 1391 1388 1386 1384 1382 1381 1380 1379 1378 1377 1376 1374 1373 1371 1370 1369 1370 1369 1369 1367 1366 1364 1363 1361 1360 1358
1451 1448 1445 1441 1438 1434 1432 1430 1428 1428 1427 1426 1426 1426 1427 1426 1425 1425 1424 1423 1422 1420 1420 1419 1418 1417 1417 1416 1415 1414 1413 1413 1412 1411 1411 1410 1410 1409 1409 1408 1406 1405 1404 1403 1402 1401 1400 1400 1399 1398 1396 1393 1392 1393 1392 1390 1390 1389 1388 1386 1384 1382 1380 1378 1377 1376 1375 1374 1373 1372 1371 1369 1367 1366 1365 1365 1364 1364 1363 1361 1359 1357 1355 1353 1351
1448 1444 1441 1438 1434 1431 1428 1426 1424 1424 1423 1423 1423 1423 1423 1422 1421 1421 1420 1419 1418 1417 1417 1416 1415 1414 1413 1412 1412 1411 1410 1409 1408 1408 1407 1407 1406 1406 1405 1404 1403 1401 1400 1400 1399 1397 1397 1396 1395 1394 1392 1390 1388 1388 1388 1386 1385 1385 1384 1382 1380 1378 1376 1375 1374 1373 1371 1370 1369 1368 1367 1366 1364 1362 1361 1360 1360 1359 1358 1356 1354 1351 1349 1347 1345
1445 1441 1438 1434 1430 1427 1425 1422 1420 1420 1420 1421 1421 1420 1419 1418 1417 1417 1417 1416 1415 1414 1414 1413 1412 1411 1410 1409 1408 1408 1407 1406 1405 1404 1404 1403 1403 1402 1402 1401 1399 1398 1397 1396 1395 1393 1392 1392 1391 1390 1389 1387 1384 1384 1384 1382 1381 1381 1381 1379 1377 1375 1373 1372 1370 1368 1367 1366 1365 1364 1363 1362 1360 1358 1357 1356 1355 1355 1353 1351 1349 1347 1344 1341 1339
1441 1439 1435 1431 1427 1424 1422 1419 1418 1418 1417 1418 1417 1417 1416 1414 1414 1414 1413 1412 1412 1411 1411 1410 1409 1408 1407 1406 1405 1404 1403 1403 1402 1401 1401 1400 1399 1399 1398 1397 1396 1394 1393 1392 1391 1390 1388 1387 1387 1386 1385 1384 1382 1380 1380 1379 1377 1377 1377 1376 1374 1372 1370 1368 1366 1365 1363 1362 1361 1360 1358 1357 1356 1354 1353 1352 1351 1350 1348 1346 1345 1342 1339 1335 1334
1439 1436 1433 1429 1425 1422 1419 1418 1417 1416 1415 1414 1414 1413 1413 1412 1411 1410 1409 1409 1409 1409 1408 1407 1405 1404 1404 1403 1402 1401 1400 1399 1399 1398 1397 1396 1396 1395 1394 1393 1392 1391 1389 1388 1387 1386 1384 1383 1383 1382 1381 1380 1379 1377 1376 1375 1373 1373 1373 1372 1371 1369 1367 1365 1364 1362 1360 1358 1356 1355 1354 1353 1351 1350 1349 1347 1346 1344 1343 1341 1339 1336 1333 1332 1330
1437 1434 1431 1427 1423 1420 1418 1416 1415 1414 1413 1412 1411 1410 1409 1409 1409 1408 1407 1407 1407 1406 1405 1403 1402 1401 1401 1400 1399 1398 1397 1396 1396 1395 1393 1393 1393 1392 1391 1390 1389 1387 1386 1384 1383 1382 1381 1379 1379 1378 1377 1376 1376 1374 1372 1371 1370 1369 1369 1368 1367 1366 1365 1363 1361 1358 1356 1354 1352 1351 1349 1348 1347 1345 1344 1343 1341 1339 1337 1334 1332 1330 1328 1327 1325
1434 1432 1429 1426 1423 1420 1417 1415 1414 1413 1411 1410 1409 1407 1407 1407 1406 1406 1406 1405 1404 1403 1401 1400 1399 1398 1397 1397 1396 1395 1395 1394 1393 1392 1390 1389 1389 1389 1388 1387 1386 1384 1382 1381 1380 1379 1377 1375 1374 1373 1373 1372 1371 1370 1369 1367 1366 1365 1365 1364 1364 1362 1362 1360 1357 1353 1351 1350 1348 1347 1345 1344 1343 1341 1340 1338 1336 1333 1331 1328 1326 1325 1323 1321 1318
1433 1430 1427 1424 1422 1419 1416 1415 1413 1412 1410 1408 1407 1406 1405 1405 1404 1404 1404 1402 1401 1400 1398 1397 1397 1396 1395 1394 1393 1392 1392 1391 1390 1389 1387 1386 1386 1385 1385 1384 1383 1381 1379 1377 1376 1375 1373 1371 1370 1369 1368 1368 1367 1366 1365 1364 1363 1362 1361 1360 1359 1358 1357 1356 1353 1350 1348 1347 1345 1343 1342 1341 1339 1337 1335 1333 1330 1328 1326 1324 1322 1320 1317 1315 1312
1431 1428 1425 1422 1419 1416 1414 1413 1411 1410 1408 1406 1406 1405 1403 1403 1402 1402 1401 1400 1399 1397 1396 1395 1394 1393 1392 1391 1390 1389 1389 1388 1387 1386 1384 1383 1383 1382 1381 1381 1379 1378 1376 1374 1373 1371 1370 1368 1366 1365 1364 1364 1363 1362 1361 1361 1360 1359 1357 1356 1355 1354 1353 1351 1349 1346 1345 1343 1342 1340 1339 1337 1335 1332 1330 1327 1325 1322 1321 1319 1316 1314 1312 1310 1308
1428 1425 1423 1420 1417 1414 1412 1409 1408 1407 1406 1405 1404 1403 1402 1401 1400 1400 1399 1397 1396 1395 1393 1392 1391 1390 1389 1388 1387 1386 1386 1385 1384 1383 1382 1381 1380 1379 1378 1377 1376 1375 1373 1371 1369 1368 1367 1365 1363 1362 1360 1360 1359 1358 1357 1357 1356 1355 1353 1352 1351 1350 1348 1347 1345 1343 1341 1340 1338 1337 1335 1332 1330 1328 1326 1323 1320 1318 1316 1314 1312 1310 1308 1306 1304
1426 1424 1421 1418 1415 1412 1410 1408 1407 1406 1404 1404 1403 1402 1400 1399 1398 1397 1396 1394 1393 1392 1390 1389 1388 1387 1386 1385 1384 1383 1383 1382 1381 1380 1379 1378 1377 1376 1375 1374 1373 1371 1370 1368 1367 1365 1363 1362 1360 1359 1357 1356 1355 1354 1353 1353 1352 1351 1349 1348 1347 1345 1344 1342 1341 1339 1337 1336 1334 1332 1330 1328 1326 1324 1322 1319 1317 1314 1312 1310 1308 1306 1304 1302 1300
1425 1422 1419 1416 1413 1411 1409 1407 1406 1405 1404 1403 1401 1400 1399 1397 1396 1395 1393 1391 1390 1389 1387 1386 1385 1384 1383 1382 1381 1380 1379 1378 1378 1377 1376 1375 1374 1373 1372 1370 1370 1369 1366 1365 1364 1362 1360 1359 1357 1356 1354 1353 1351 1350 1349 1349 1348 1347 1345 1344 1343 1341 1340 1339 1337 1335 1334 1332 1330 1328 1326 1324 1322 1320 1317 1315 1313 1311 1309 1307 1304 1302 1300 1298 1297
1423 1421 1418 1415 1413 1411 1409 1407 1406 1404 1402 1401 1399 1398 1396 1395 1393 1392 1390 1389 1387 1386 1385 1383 1382 1381 1380 1379 1379 1378 1376 1375 1374 1373 1373 1372 1371 1370 1369 1367 1367 1366 1364 1362 1360 1359 1358 1357 1355 1353 1352 1350 1347 1346 1346 1345 1345 1344 1343 1342 1340 1339 1337 1336 1334 1333 1331 1328 1326 1324 1322 1320 1318 1316 1313 1311 1309 1307 1305 1303 1301 1299 1297 1295 1293
1421 1419 1416 1414 1412 1410 1408 1407 1405 1403 1401 1399 1397 1396 1394 1393 1392 1390 1388 1387 1385 1383 1382 1381 1380 1379 1378 1377 1375 1374 1374 1372 1371 1370 1369 1368 1368 1368 1366 1364 1363 1362 1361 1359 1357 1356 1355 1354 1352 1350 1349 1347 1344 1342 1342 1343 1343 1342 1341 1340 1338 1336 1334 1332 1331 1330 1327 1324 1322 1320 1319 1317 1314 1312 1310 1307 1306 1304 1302 1300 1298 1296 1294 1292 1290
1420 1417 1414 1413 1411 1409 1407 1405 1403 1401 1399 1397 1396 1394 1393 1391 1390 1388 1386 1385 1383 1381 1380 1379 1378 1377 1375 1374 1373 1371 1370 1370 1368 1367 1366 1365 1364 1364 1364 1363 1361 1360 1358 1357 1356 1355 1354 1353 1350 1348 1346 1344 1342 1341 1340 1340 1339 1339 1337 1335 1333 1332 1330 1329 1328 1326 1323 1320 1319 1317 1315 1313 1311 1309 1307 1305 1303 1301 1299 1297 1295 1293 1291 1289 1287